This demonstration page uses our WeatherBlox Daily Observations layout. Learn more.

Left ArrowRight Arrow

Hourly Observations for March 2, 2020

Temp ( °F °C ) Dew Point ( °F °C ) Humidity (%) Winds ( mph kmh ) Pressure ( in mb ) Visibility ( mi km ) Precip ( " mm )
12:53 am 00:53 Clear 31 -0.6 17 -8.3 56 56 SW 25 41 29.67 1005 10 16 N/A
1:53 am 01:53 Clear 30 -1.1 17 -8.3 58 58 SW 26 43 29.64 1004 10 16 N/A
2:53 am 02:53 Clear 31 -0.6 16 -8.9 54 54 SW 23 37 29.60 1003 10 16 N/A
3:53 am 03:53 Clear 32 undefined 16 -8.9 52 52 SW 23 37 29.58 1002 10 16 N/A
4:53 am 04:53 Cloudy 35 1.7 16 -8.9 46 46 SW 26 43 29.57 1002 10 16 N/A
5:53 am 05:53 Mostly Cloudy 35 1.7 17 -8.3 48 48 WSW 22 35 29.58 1002 10 16 N/A
6:53 am 06:53 Mostly Cloudy 34 1.1 16 -8.9 48 48 SW 23 37 29.59 1002 10 16 N/A
7:53 am 07:53 Cloudy 36 2.2 19 -7.2 50 50 SW 22 35 29.59 1002 10 16 N/A
8:53 am 08:53 Sunny 39 3.9 19 -7.2 45 45 WSW 24 39 29.60 1003 10 16 N/A
9:30 am 09:30 Sunny 41 5 19 -7.2 41 41 WNW 25 41 29.61 1003 10 16 N/A
9:53 am 09:53 Sunny 44 6.7 20 -6.7 38 38 WNW 31 50 29.61 1003 10 16 N/A
10:53 am 10:53 Partly Cloudy 47 8.3 18 -7.8 31 31 WNW 39 63 29.62 1003 10 16 N/A
11:53 am 11:53 Sunny 47 8.3 21 -6.1 36 36 NW 25 41 29.66 1004 10 16 N/A
12:53 pm 12:53 Sunny 48 8.9 21 -6.1 34 34 WNW 26 43 29.66 1004 10 16 N/A
1:53 pm 13:53 Mostly Sunny 46 7.8 22 -5.6 38 38 NNW 21 33 29.67 1005 10 16 N/A
2:53 pm 14:53 Sunny 47 8.3 23 -5 39 39 NNW 21 33 29.67 1005 10 16 N/A
3:53 pm 15:53 Mostly Sunny 44 6.7 22 -5.6 41 41 NNW 13 20 29.70 1006 10 16 N/A
4:53 pm 16:53 Cloudy 42 5.6 23 -5 47 47 NNW 6 9 29.71 1006 10 16 N/A
5:53 pm 17:53 Partly Cloudy 39 3.9 24 -4.4 55 55 WNW 3 6 29.71 1006 10 16 N/A
6:53 pm 18:53 Cloudy 34 1.1 23 -5 64 64 WSW 7 11 29.72 1006 10 16 N/A
7:53 pm 19:53 Clear 34 1.1 24 -4.4 67 67 SW 15 24 29.71 1006 10 16 N/A
8:53 pm 20:53 Clear 37 2.8 24 -4.4 59 59 W 20 31 29.70 1006 10 16 N/A
9:53 pm 21:53 Clear 33 0.6 23 -5 66 66 SW 16 26 29.71 1006 10 16 N/A
10:53 pm 22:53 Clear 35 1.7 22 -5.6 59 59 SW 14 22 29.69 1005 10 16 N/A
11:53 pm 23:53 Clear 34 1.1 21 -6.1 59 59 SSW 15 24 29.66 1004 10 16 N/A

Powered by AerisWeather